Location: Bou Ouachlou
(32.7770°N, 5.6009°W)
Time: 20:17:45
(UTC+00:00)

COBE Rocket - Pass Details

Date: 07 June 2020
Orbit: 680 x 782 km, 97.1° (Epoch: 04 July)

Event Time Altitude Azimuth Distance (km) Brightness Sun altitude
Exits shadow 03:17:12 18° 162° (SSE) 1,769 5.6 -20.4°
Maximum altitude 03:20:56 79° 78° (ENE) 781 4.0 -19.8°
Drops below altitude 10° 03:26:05 10° 352° (N) 2,326 7.0 -19.1°
Sets 03:28:25 0° 351° (N) 3,265 7.8 -18.7°
